Location: Kalispell
(48.1967°N, 114.3128°W)
Time: 13:36:49
(UTC-06:00)

Amateur Radio Satellites - All Passes

Search period start: 31 July 2014 13:06
Search period end: 01 August 2014 13:06
Location: Kalispell, 48.1967°N, 114.3128°W

Satellite Date Start Highest point End Downlink Frequencies (MHz)
Time Altitude Azimuth
Saudisat 1A 31 Jul 13:13:58 13:14:55 11° 11° (NNE) 13:15:51 436.775 MHz
Oscar 16 31 Jul 13:16:44 13:21:12 31° 64° (ENE) 13:25:42 437.025 USB, Beacon 2401.1428
SO-50 31 Jul 13:24:00 13:28:29 84° 127° (SE) 13:33:06 436.795 FM
UOSAT-12 31 Jul 13:33:37 13:34:44 11° 107° (ESE) 13:35:50 437.025 FM, 437.400 FM
KITSAT 1 31 Jul 13:39:57 13:47:17 35° 32° (NNE) 13:54:34 435.175 FM
ITAMSAT 1 31 Jul 13:43:33 13:47:51 27° 61° (ENE) 13:52:08 435.822 SSB
HO-68 31 Jul 13:46:58 13:50:12 14° 319° (NW) 13:53:26 435.675 MHz FM
AO-7 31 Jul 13:48:43 13:51:52 13° 31° (NNE) 13:55:02 29.400 - 29.500 MHz
Uribyol 2 31 Jul 14:01:41 14:06:27 38° 66° (ENE) 14:11:13 436.500 FM
AO-27 31 Jul 14:02:53 14:07:40 38° 65° (ENE) 14:12:27 436.795 MHz FM
RS-15 31 Jul 14:08:18 14:19:10 65° 119° (ESE) 14:29:53 29.354 - 29.394 USB, Beacon 29.352 USB
TMSAT-1 31 Jul 14:16:17 14:19:47 18° 57° (ENE) 14:23:17 436.925 FM
AO-Echo 31 Jul 14:20:52 14:26:02 53° 69° (ENE) 14:31:11 ?
Oscar 19 31 Jul 14:26:18 14:31:24 75° 257° (WSW) 14:36:34 437.125 CW, 437.150 USB
Gurwin Techsat 1B 31 Jul 14:40:50 14:45:37 35° 65° (ENE) 14:50:25 435.225 FM
JAS-1B 31 Jul 14:40:52 14:49:58 62° 65° (ENE) 14:59:42 435.800 - 435.900 CW/SSB
Saudisat 1A 31 Jul 14:52:21 14:56:03 25° 35° (NE) 14:59:43 436.775 MHz
Oscar 16 31 Jul 14:55:39 15:00:27 41° 262° (W) 15:05:18 437.025 USB, Beacon 2401.1428
SO-50 31 Jul 15:06:04 15:09:38 22° 329° (NNW) 15:13:17 436.795 FM
UOSAT-12 31 Jul 15:09:24 15:14:01 74° 126° (SE) 15:18:44 437.025 FM, 437.400 FM
ITAMSAT 1 31 Jul 15:22:01 15:27:05 51° 260° (W) 15:32:10 435.822 SSB
AO-7 31 Jul 15:34:51 15:42:22 39° 55° (NE) 15:49:53 29.400 - 29.500 MHz
KITSAT 1 31 Jul 15:35:28 15:43:35 84° 237° (WSW) 15:51:39 435.175 FM
Uribyol 2 31 Jul 15:41:18 15:45:58 34° 264° (W) 15:50:40 436.500 FM
AO-27 31 Jul 15:42:29 15:47:13 34° 264° (W) 15:51:58 436.795 MHz FM
TMSAT-1 31 Jul 15:53:46 15:59:04 82° 256° (WSW) 16:04:25 436.925 FM
AO-Echo 31 Jul 16:00:44 16:05:04 25° 268° (W) 16:09:25 ?
Oscar 19 31 Jul 16:10:42 16:11:40 11° 275° (W) 16:12:37 437.125 CW, 437.150 USB
Gurwin Techsat 1B 31 Jul 16:20:38 16:25:33 38° 263° (W) 16:30:30 435.225 FM
Uosat F 31 Jul 16:20:42 16:25:31 47° 68° (ENE) 16:30:21 435.120 FM
RS-15 31 Jul 16:21:20 16:31:59 52° 325° (NW) 16:42:38 29.354 - 29.394 USB, Beacon 29.352 USB
Saudisat 1A 31 Jul 16:31:38 16:36:01 65° 236° (SW) 16:40:22 436.775 MHz
JAS-1B 31 Jul 16:32:10 16:40:46 43° 267° (W) 16:50:05 435.800 - 435.900 CW/SSB
SO-50 31 Jul 16:50:42 16:51:56 11° 353° (N) 16:53:12 436.795 FM
UOSAT-12 31 Jul 16:50:48 16:54:40 25° 327° (NNW) 16:58:35 437.025 FM, 437.400 FM
JAS-2 31 Jul 16:58:44 17:03:40 20° 53° (NE) 17:08:19 435.800 - 435.900 CW/SSB, 435.910 FM
OPAL 31 Jul 17:18:48 17:23:26 34° 99° (E) 17:28:04 ?
AO-7 31 Jul 17:26:34 17:34:49 62° 256° (WSW) 17:43:08 29.400 - 29.500 MHz
KITSAT 1 31 Jul 17:32:16 17:37:50 21° 258° (WSW) 17:43:24 435.175 FM
TMSAT-1 31 Jul 17:37:43 17:39:51 12° 275° (W) 17:41:59 436.925 FM
Uosat F 31 Jul 18:00:21 18:04:32 26° 266° (W) 18:08:44 435.120 FM
Hamsat 31 Jul 18:27:50 18:31:58 62° 73° (ENE) 18:36:09 145.90 MHz
SO-50 31 Jul 18:32:10 18:34:34 14° 18° (NNE) 18:36:59 436.795 FM
SO-67 31 Jul 18:33:10 18:33:43 10° 60° (ENE) 18:34:15 435.3500 MHz FM
UOSAT-12 31 Jul 18:34:48 18:36:28 12° 351° (N) 18:38:09 437.025 FM, 437.400 FM
RS-15 31 Jul 18:37:50 18:47:27 33° 358° (N) 18:57:10 29.354 - 29.394 USB, Beacon 29.352 USB
JAS-2 31 Jul 18:40:06 18:47:46 75° 72° (ENE) 18:54:47 435.800 - 435.900 CW/SSB, 435.910 FM
OPAL 31 Jul 18:57:41 19:02:20 38° 297° (WNW) 19:07:02 ?
HO-68 31 Jul 19:00:27 19:02:37 12° 38° (NE) 19:04:47 435.675 MHz FM
AO-7 31 Jul 19:25:53 19:29:23 13° 277° (W) 19:32:53 29.400 - 29.500 MHz
STRAND 1 31 Jul 19:46:51 19:51:20 30° 95° (E) 19:55:46 ?
SO-67 31 Jul 20:02:47 20:06:15 72° 258° (WSW) 20:09:45 435.3500 MHz FM
Hamsat 31 Jul 20:06:03 20:08:22 14° 271° (W) 20:10:43 145.90 MHz
SO-50 31 Jul 20:12:00 20:16:25 38° 41° (NE) 20:20:54 436.795 FM
UOSAT-12 31 Jul 20:16:27 20:18:42 13° 16° (NNE) 20:20:57 437.025 FM, 437.400 FM
JAS-2 31 Jul 20:27:04 20:33:17 27° 269° (W) 20:39:10 435.800 - 435.900 CW/SSB, 435.910 FM
HO-68 31 Jul 20:41:54 20:48:32 43° 61° (ENE) 20:55:11 435.675 MHz FM
RS-15 31 Jul 20:52:37 21:03:08 47° 31° (NNE) 21:13:52 29.354 - 29.394 USB, Beacon 29.352 USB
UKube-1 31 Jul 20:57:04 21:00:32 23° 63° (ENE) 21:04:00 145.840 MHz, 145.915 MHz
STRAND 1 31 Jul 21:25:51 21:30:38 41° 293° (WNW) 21:35:23 ?
MaSat-1 31 Jul 21:35:34 21:39:46 56° 114° (ESE) 21:44:34 437.345 MHz
Oscar 11 31 Jul 21:38:31 21:42:14 29° 66° (ENE) 21:45:59 145.825 FM, Beacon 2401.500 USB
SO-50 31 Jul 21:52:37 21:57:03 40° 240° (WSW) 22:01:32 436.795 FM
UOSAT-12 31 Jul 21:55:57 22:00:17 33° 39° (NE) 22:04:33 437.025 FM, 437.400 FM
FUNcube-1 31 Jul 22:09:00 22:12:24 24° 65° (ENE) 22:15:46 145.950 - 145.970 MHz USB
HO-68 31 Jul 22:29:22 22:36:12 47° 261° (W) 22:43:05 435.675 MHz FM
UKube-1 31 Jul 22:32:21 22:36:31 43° 261° (W) 22:40:42 145.840 MHz, 145.915 MHz
RS-15 31 Jul 23:05:23 23:16:20 74° 238° (WSW) 23:27:40 29.354 - 29.394 USB, Beacon 29.352 USB
ISS 31 Jul 23:13:03 23:15:36 21° 140° (SE) 23:18:10 145.800 FM
MaSat-1 31 Jul 23:13:38 23:17:28 26° 317° (NW) 23:21:42 437.345 MHz
Oscar 11 31 Jul 23:14:32 23:18:23 32° 264° (W) 23:22:16 145.825 FM, Beacon 2401.500 USB
Oscar 10/S400 31 Jul 23:23:45 23:46:34 49° 161° (SSE) 07:20:24 145.825 - 145.975 CW/USB, Beacon 145.810 USB
UOSAT-12 31 Jul 23:36:03 23:40:36 47° 239° (WSW) 23:45:06 437.025 FM, 437.400 FM
FUNcube-1 31 Jul 23:44:39 23:48:39 38° 262° (W) 23:52:36 145.950 - 145.970 MHz USB
Sapphire 01 Aug 00:38:20 00:43:08 34° 112° (ESE) 00:47:58 437.095 MHz 1200 baud AX-25 AFSK
ISS 01 Aug 00:48:39 00:52:00 87° 338° (NNW) 00:55:22 145.800 FM
PCSat 01 Aug 01:10:43 01:16:03 63° 119° (ESE) 01:21:25 145.825 MHz
AO-40 01 Aug 01:13:14 06:22:58 31° 165° (SSE) 08:13:55 Beacon 2401.320
RS-15 01 Aug 01:19:32 01:26:44 20° 261° (W) 01:34:07 29.354 - 29.394 USB, Beacon 29.352 USB
Sapphire 01 Aug 02:21:13 02:26:26 47° 312° (NW) 02:31:41 437.095 MHz 1200 baud AX-25 AFSK
JAS-1B 01 Aug 02:25:40 02:30:50 16° 77° (ENE) 02:35:35 435.800 - 435.900 CW/SSB
ISS 01 Aug 02:25:42 02:28:57 44° 358° (N) 02:32:12 145.800 FM
AO-Echo 01 Aug 02:26:46 02:28:48 12° 85° (E) 02:30:49 ?
Oscar 19 01 Aug 02:34:29 02:39:02 30° 95° (E) 02:43:33 437.125 CW, 437.150 USB
PCSat 01 Aug 02:55:10 02:59:53 29° 320° (NW) 03:04:38 145.825 MHz
OPAL 01 Aug 03:01:13 03:04:07 16° 53° (NE) 03:07:02 ?
Oscar 16 01 Aug 03:03:10 03:08:15 54° 100° (E) 03:13:19 437.025 USB, Beacon 2401.1428
ITAMSAT 1 01 Aug 03:31:07 03:36:04 44° 98° (E) 03:40:59 435.822 SSB
Uribyol 2 01 Aug 03:49:36 03:54:45 66° 102° (ESE) 03:59:53 436.500 FM
AO-27 01 Aug 03:51:08 03:56:19 66° 102° (ESE) 04:01:28 436.795 MHz FM
ISS 01 Aug 04:02:36 04:05:58 68° 18° (NNE) 04:09:19 145.800 FM
AO-Echo 01 Aug 04:03:18 04:08:24 88° 105° (ESE) 04:13:18 ?
TMSAT-1 01 Aug 04:06:16 04:10:56 31° 94° (E) 04:15:34 436.925 FM
Sapphire 01 Aug 04:08:05 04:11:14 15° 336° (NNW) 04:14:25 437.095 MHz 1200 baud AX-25 AFSK
Oscar 19 01 Aug 04:13:38 04:18:30 42° 293° (WNW) 04:23:21 437.125 CW, 437.150 USB
JAS-1B 01 Aug 04:14:00 04:23:26 68° 101° (E) 04:31:24 435.800 - 435.900 CW/SSB
MaSat-1 01 Aug 04:14:10 04:16:31 13° 29° (NNE) 04:18:52 437.345 MHz
Uosat F 01 Aug 04:27:54 04:28:33 10° 85° (E) 04:29:12 435.120 FM
Gurwin Techsat 1B 01 Aug 04:32:32 04:37:52 67° 102° (ESE) 04:43:08 435.225 FM
OPAL 01 Aug 04:37:23 04:42:20 90° 80° (E) 04:47:21 ?
PCSat 01 Aug 04:43:08 04:45:10 12° 345° (NNW) 04:47:13 145.825 MHz
Oscar 16 01 Aug 04:43:09 04:47:17 25° 299° (WNW) 04:51:26 437.025 USB, Beacon 2401.1428
ITAMSAT 1 01 Aug 05:10:57 05:15:25 30° 297° (WNW) 05:19:51 435.822 SSB
AO-7 01 Aug 05:24:03 05:31:43 38° 97° (E) 05:39:16 29.400 - 29.500 MHz
Uribyol 2 01 Aug 05:29:59 05:33:46 21° 301° (WNW) 05:37:33 436.500 FM
STRAND 1 01 Aug 05:31:26 05:33:01 11° 51° (NE) 05:34:35 ?
AO-27 01 Aug 05:31:33 05:35:23 21° 301° (WNW) 05:39:12 436.795 MHz FM
ISS 01 Aug 05:39:31 05:42:31 30° 216° (SW) 05:45:31 145.800 FM
AO-Echo 01 Aug 05:43:30 05:46:27 16° 305° (NW) 05:49:21 ?
TMSAT-1 01 Aug 05:46:01 05:50:59 43° 293° (WNW) 05:55:57 436.925 FM
MaSat-1 01 Aug 05:50:11 05:55:15 43° 51° (NE) 06:00:07 437.345 MHz
Sapphire 01 Aug 05:56:43 05:57:10 10° 2° (N) 05:57:37 437.095 MHz 1200 baud AX-25 AFSK
Uosat F 01 Aug 06:03:11 06:08:14 75° 104° (ESE) 06:13:14 435.120 FM
JAS-1B 01 Aug 06:04:55 06:13:18 38° 305° (NW) 06:20:44 435.800 - 435.900 CW/SSB
KITSAT 1 01 Aug 06:07:39 06:15:06 42° 112° (ESE) 06:22:33 435.175 FM
Gurwin Techsat 1B 01 Aug 06:13:24 06:17:21 22° 301° (WNW) 06:21:18 435.225 FM
OPAL 01 Aug 06:19:45 06:21:57 13° 271° (W) 06:24:09 ?
PCSat 01 Aug 06:29:32 06:31:13 11° 12° (NNE) 06:32:54 145.825 MHz
Saudisat 1A 01 Aug 06:43:39 06:45:49 14° 110° (ESE) 06:48:00 436.775 MHz
STRAND 1 01 Aug 07:06:09 07:11:13 63° 71° (ENE) 07:16:19 ?
AO-7 01 Aug 07:16:43 07:24:51 59° 298° (WNW) 07:32:55 29.400 - 29.500 MHz
MaSat-1 01 Aug 07:27:43 07:32:31 36° 251° (WSW) 07:37:04 437.345 MHz
JAS-2 01 Aug 07:32:00 07:37:38 43° 96° (E) 07:42:43 435.800 - 435.900 CW/SSB, 435.910 FM
Sapphire 01 Aug 07:39:17 07:42:58 18° 29° (NNE) 07:46:39 437.095 MHz 1200 baud AX-25 AFSK
Uosat F 01 Aug 07:43:06 07:46:28 18° 303° (WNW) 07:49:49 435.120 FM
Hamsat 01 Aug 07:45:40 07:50:00 79° 103° (ESE) 07:54:21 145.90 MHz
JAS-1B 01 Aug 07:57:19 08:01:00 13° 329° (NNW) 08:04:32 435.800 - 435.900 CW/SSB
KITSAT 1 01 Aug 08:02:19 08:10:18 59° 314° (NW) 08:18:19 435.175 FM
PCSat 01 Aug 08:12:06 08:16:39 26° 37° (NE) 08:21:10 145.825 MHz
Saudisat 1A 01 Aug 08:20:20 08:24:46 87° 309° (NW) 08:29:14 436.775 MHz
STRAND 1 01 Aug 08:47:07 08:50:51 20° 269° (W) 08:54:36 ?
SO-67 01 Aug 08:56:08 08:59:39 83° 103° (ESE) 09:03:07 435.3500 MHz FM
AO-7 01 Aug 09:10:52 09:16:00 18° 321° (NW) 09:21:07 29.400 - 29.500 MHz
JAS-2 01 Aug 09:17:22 09:22:36 32° 299° (WNW) 09:27:22 435.800 - 435.900 CW/SSB, 435.910 FM
Sapphire 01 Aug 09:22:07 09:27:31 62° 52° (NE) 09:32:53 437.095 MHz 1200 baud AX-25 AFSK
Hamsat 01 Aug 09:23:12 09:25:24 14° 301° (WNW) 09:27:36 145.90 MHz
HO-68 01 Aug 09:52:57 09:59:05 30° 93° (E) 10:05:09 435.675 MHz FM
PCSat 01 Aug 09:55:12 10:00:38 76° 239° (WSW) 10:06:03 145.825 MHz
KITSAT 1 01 Aug 10:00:59 10:07:33 26° 341° (NNW) 10:14:07 435.175 FM
Saudisat 1A 01 Aug 10:01:41 10:04:59 20° 329° (NNW) 10:08:18 436.775 MHz
UKube-1 01 Aug 10:17:18 10:20:51 24° 94° (E) 10:24:23 145.840 MHz, 145.915 MHz
Oscar 11 01 Aug 10:58:05 11:02:06 35° 97° (E) 11:06:05 145.825 FM, Beacon 2401.500 USB
Sapphire 01 Aug 11:06:13 11:10:33 25° 251° (WSW) 11:14:51 437.095 MHz 1200 baud AX-25 AFSK
FUNcube-1 01 Aug 11:29:59 11:33:39 29° 95° (E) 11:37:21 145.950 - 145.970 MHz USB
RS-15 01 Aug 11:33:03 11:33:57 10° 91° (E) 11:34:51 29.354 - 29.394 USB, Beacon 29.352 USB
HO-68 01 Aug 11:40:12 11:47:15 64° 293° (WNW) 11:54:16 435.675 MHz FM
PCSat 01 Aug 11:40:56 11:43:08 13° 258° (WSW) 11:45:19 145.825 MHz
UKube-1 01 Aug 11:53:08 11:57:12 39° 292° (WNW) 12:01:14 145.840 MHz, 145.915 MHz
KITSAT 1 01 Aug 11:59:52 12:06:03 23° 11° (N) 12:12:13 435.175 FM
SO-50 01 Aug 12:11:16 12:15:04 28° 116° (ESE) 12:18:56 436.795 FM
Oscar 19 01 Aug 12:20:11 12:21:33 11° 51° (NE) 12:22:54 437.125 CW, 437.150 USB
Oscar 11 01 Aug 12:34:30 12:38:11 27° 295° (WNW) 12:41:51 145.825 FM, Beacon 2401.500 USB
Oscar 16 01 Aug 12:46:42 12:50:11 19° 57° (ENE) 12:53:41 437.025 USB, Beacon 2401.1428
